This demonstration page uses our WeatherBlox Daily Observations layout. Learn more.

Left ArrowRight Arrow

39.92423, -83.80882

Hourly Observations for May 8, 2021

Temp ( °F °C ) Dew Point ( °F °C ) Humidity (%) Winds ( mph kmh ) Pressure ( in mb ) Visibility ( mi km ) Precip ( " mm )
12:56 am 00:56 Clear 41 5 36 2.2 82 82 NW 10 17 29.99 1016 10 16.0934 0.02 0.508
1:56 am 01:56 Clear 40 4.4 36 2.2 86 86 WNW 8 13 30 1016 10 16.0934 0.01 0.254
2:56 am 02:56 Clear 39 3.9 36 2.2 89 89 NW 8 13 30.01 1016 10 16.0934 0.01 0.254
3:56 am 03:56 Clear 37 2.8 36 2.2 96 96 NW 7 11 30.01 1016 10 16.0934 N/A
4:56 am 04:56 Clear 37 2.8 36 2.2 96 96 NW 8 13 30.04 1017 10 16.0934 N/A
5:56 am 05:56 Clear 35 1.7 35 1.7 100 100 W 7 11 30.06 1018 10 16.0934 N/A
6:56 am 06:56 Sunny 36 2.2 36 2.2 100 100 WNW 8 13 30.08 1019 10 16.0934 N/A
7:56 am 07:56 Sunny 39 3.9 37 2.8 93 93 NW 8 13 30.11 1020 10 16.0934 N/A
8:56 am 08:56 Partly Cloudy 41 5 37 2.8 86 86 NW 10 17 30.12 1020 10 16.0934 N/A
9:56 am 09:56 Mostly Sunny 44 6.7 37 2.8 76 76 NNW 9 15 30.14 1021 10 16.0934 N/A
10:28 am 10:28 Mostly Cloudy 46 8 37 3 71 71 WNW 10 17 30.14 1021 10 16.0934 N/A
10:49 am 10:49 Mostly Cloudy 46 8 36 2 66 66 NNW 8 13 30.14 1021 10 16.0934 N/A
10:56 am 10:56 Mostly Cloudy 47 8.3 37 2.8 69 69 NNW 8 13 30.14 1021 10 16.0934 N/A
11:56 am 11:56 Mostly Cloudy 49 9.4 37 2.8 64 64 N 13 20 30.14 1021 10 16.0934 N/A
12:56 pm 12:56 Partly Cloudy 50 10 35 1.7 57 57 N 9 15 30.14 1021 10 16.0934 N/A
1:56 pm 13:56 Mostly Cloudy 52 11.1 37 2.8 57 57 NW 8 13 30.13 1020 10 16.0934 N/A
2:56 pm 14:56 Partly Cloudy 53 11.7 38 3.3 57 57 W 8 13 30.13 1020 10 16.0934 N/A
3:56 pm 15:56 Mostly Cloudy 54 12.2 37 2.8 53 53 WSW 5 7 30.11 1020 10 16.0934 N/A
4:56 pm 16:56 Partly Cloudy 53 11.7 35 1.7 51 51 W 6 9 30.1 1019 10 16.0934 N/A
5:56 pm 17:56 Mostly Sunny 55 12.8 35 1.7 47 47 NW 5 7 30.1 1019 10 16.0934 N/A
6:56 pm 18:56 Sunny 53 11.7 35 1.7 51 51 SW 6 9 30.1 1019 10 16.0934 N/A
7:56 pm 19:56 Sunny 52 11.1 36 2.2 55 55 N 3 6 30.1 1019 10 16.0934 N/A
8:56 pm 20:56 Clear 50 10 39 3.9 66 66 ENE 6 9 30.09 1019 10 16.0934 N/A
9:56 pm 21:56 Cloudy 49 9.4 42 5.6 77 77 E 5 7 30.07 1018 10 16.0934 N/A
10:56 pm 22:56 Cloudy 49 9.4 42 5.6 77 77 ESE 5 7 30.07 1018 10 16.0934 N/A
11:56 pm 23:56 Cloudy with Light Rain 49 9.4 41 5 74 74 S 7 11 30.07 1018 10 16.0934 0.001 0.001

Powered by AerisWeather